User: anonymous   Login
Location: Slanting_Bridge
(35.6330°N, 80.9830°W)
Time: 08:30:22
(UTC-05:00)
Language:

Hamsat - Orbit

View from above orbital plane
View from above orbital plane
View from above satellite
View from above satellite

Ground track
Ground track

The orbit data is extracted from the following two-line orbital elements,

1 28650U 05017B   18049.88650500  .00000283  00000-0  35789-4 0  9997
2 28650  97.6846  21.3450 0024400  37.1208 323.1691 14.88866795692878
Epoch (UTC): 18 February 2018 21:16:34
Eccentricity: 0.0024400
inclination: 97.6846°
perigee height: 584 km
apogee height: 618 km
right ascension of ascending node: 21.3450°
argument of perigee: 37.1208°
revolutions per day: 14.88866795
mean anomaly at epoch: 323.1691°
orbit number at epoch: 69287

The dashed part of the orbit path shows where the satellite is in the earth's shadow,  

DLR